| time (UTC) | temp C | wind direction | speed KPH | gust KPH | rain 1hr cm | rain 24hr cm | rain mn cm | humidity % | barometer mb |
| 20260905120108 | 13 | 293 | 0.0 | 0.0 | 0.00 | 0.00 | 0.00 | 99 | 1068.2 |
| 20260905115108 | 13 | 312 | 1.6 | 1.6 | 0.00 | 0.00 | 0.00 | 99 | 1068.1 |
| 20260905114106 | 13 | 282 | 1.6 | 1.6 | 0.00 | 0.00 | 0.00 | 99 | 1068.1 |
| 20260905113103 | 13 | 272 | 0.0 | 0.0 | 0.00 | 0.00 | 0.00 | 99 | 1067.7 |
| 20260905112059 | 13 | 283 | 0.0 | 0.0 | 0.00 | 0.00 | 0.00 | 99 | 1067.4 |
| 20260905111059 | 13 | 81 | 4.8 | 4.8 | 0.00 | 0.00 | 0.00 | 99 | 1067.5 |
| 20260905110059 | 13 | 289 | 1.6 | 1.6 | 0.00 | 0.00 | 0.00 | 99 | 1067.5 |
| 20260905105059 | 13 | 284 | 0.0 | 0.0 | 0.00 | 0.00 | 0.00 | 99 | 1067.2 |
| 20260905104054 | 13 | 284 | 0.0 | 0.0 | 0.00 | 0.00 | 0.00 | 99 | 1067.2 |
| 20260905103052 | 13 | 284 | 0.0 | 0.0 | 0.00 | 0.00 | 0.00 | 99 | 1067.3 |
| 20260905102050 | 13 | 280 | 0.0 | 0.0 | 0.00 | 0.00 | 0.00 | 99 | 1067.3 |
| 20260905101046 | 13 | 299 | 0.0 | 1.6 | 0.00 | 0.00 | 0.00 | 99 | 1067.2 |
| 20260905100043 | 13 | 284 | 0.0 | 0.0 | 0.00 | 0.00 | 0.00 | 99 | 1067.2 |
| 20260905095038 | 12 | 284 | 0.0 | 0.0 | 0.00 | 0.00 | 0.00 | 99 | 1067.1 |
| 20260905094038 | 12 | 286 | 0.0 | 0.0 | 0.00 | 0.00 | 0.00 | 99 | 1067.1 |
| 20260905093035 | 12 | 295 | 0.0 | 0.0 | 0.00 | 0.00 | 0.00 | 99 | 1067.2 |
| 20260905092031 | 12 | 298 | 0.0 | 1.6 | 0.00 | 0.00 | 0.00 | 99 | 1067.2 |
| 20260905091030 | 12 | 296 | 0.0 | 0.0 | 0.00 | 0.00 | 0.00 | 99 | 1067.2 |
| 20260905090026 | 12 | 301 | 1.6 | 1.6 | 0.00 | 0.00 | 0.00 | 99 | 1067.1 |
| 20260905085020 | 12 | 286 | 0.0 | 0.0 | 0.00 | 0.00 | 0.00 | 99 | 1067.2 |
| 20260905084020 | 12 | 287 | 0.0 | 0.0 | 0.00 | 0.00 | 0.00 | 99 | 1067.2 |
| 20260905083018 | 12 | 284 | 0.0 | 0.0 | 0.00 | 0.00 | 0.00 | 99 | 1067.2 |
| 20260905082015 | 12 | 284 | 0.0 | 0.0 | 0.00 | 0.00 | 0.00 | 99 | 1067.1 |
| 20260905081014 | 12 | 285 | 0.0 | 0.0 | 0.00 | 0.00 | 0.00 | 99 | 1067.1 |
| 20260905080009 | 12 | 285 | 0.0 | 0.0 | 0.00 | 0.00 | 0.00 | 99 | 1067.5 |
| 20260905075008 | 12 | 286 | 0.0 | 0.0 | 0.00 | 0.00 | 0.00 | 99 | 1067.4 |
| 20260905074005 | 12 | 286 | 0.0 | 0.0 | 0.00 | 0.00 | 0.00 | 99 | 1067.3 |
| 20260905073001 | 12 | 286 | 0.0 | 0.0 | 0.00 | 0.00 | 0.00 | 99 | 1067.1 |
| 20260905071957 | 12 | 289 | 0.0 | 0.0 | 0.00 | 0.00 | 0.00 | 99 | 1067.1 |
| 20260905070953 | 13 | 312 | 0.0 | 0.0 | 0.00 | 0.00 | 0.00 | 99 | 1067.3 |
| 20260905065949 | 12 | 284 | 0.0 | 0.0 | 0.00 | 0.00 | 0.00 | 99 | 1067.4 |
| 20260905064949 | 12 | 289 | 0.0 | 0.0 | 0.00 | 0.00 | 0.00 | 99 | 1067.4 |
| 20260905063944 | 12 | 287 | 0.0 | 0.0 | 0.00 | 0.00 | 0.00 | 99 | 1067.4 |
| 20260905062941 | 12 | 284 | 0.0 | 0.0 | 0.00 | 0.00 | 0.00 | 99 | 1067.5 |
| 20260905061936 | 12 | 284 | 0.0 | 0.0 | 0.00 | 0.00 | 0.00 | 99 | 1067.4 |
| 20260905060935 | 12 | 284 | 0.0 | 0.0 | 0.00 | 0.00 | 0.00 | 99 | 1067.2 |
| 20260905055931 | 13 | 284 | 0.0 | 0.0 | 0.00 | 0.00 | 0.00 | 99 | 1067.3 |
| 20260905054931 | 12 | 284 | 0.0 | 0.0 | 0.00 | 0.00 | 0.00 | 99 | 1067.5 |
| 20260905053926 | 13 | 287 | 0.0 | 0.0 | 0.00 | 0.00 | 0.00 | 99 | 1067.6 |
| 20260905052923 | 13 | 284 | 0.0 | 0.0 | 0.00 | 0.00 | 0.00 | 99 | 1067.4 |
| 20260905051922 | 13 | 284 | 0.0 | 0.0 | 0.00 | 0.00 | 0.00 | 99 | 1067.6 |
| 20260905050921 | 13 | 287 | 0.0 | 0.0 | 0.00 | 0.00 | 0.00 | 99 | 1067.6 |
| 20260905045918 | 13 | 289 | 0.0 | 0.0 | 0.00 | 0.00 | 0.00 | 99 | 1067.7 |
| 20260905044915 | 13 | 298 | 0.0 | 0.0 | 0.00 | 0.00 | 0.00 | 99 | 1067.6 |
| 20260905043914 | 14 | 289 | 0.0 | 0.0 | 0.00 | 0.00 | 0.00 | 99 | 1067.8 |
| 20260905042914 | 14 | 286 | 0.0 | 0.0 | 0.00 | 0.00 | 0.00 | 99 | 1067.9 |
| 20260905041910 | 15 | 293 | 0.0 | 0.0 | 0.00 | 0.00 | 0.00 | 99 | 1067.5 |
| 20260905040906 | 15 | 292 | 0.0 | 0.0 | 0.00 | 0.00 | 0.00 | 99 | 1067.7 |
| 20260905035905 | 15 | 284 | 0.0 | 0.0 | 0.00 | 0.00 | 0.00 | 99 | 1067.4 |
| 20260905034903 | 15 | 283 | 0.0 | 0.0 | 0.00 | 0.00 | 0.00 | 99 | 1067.5 |
| 20260905033903 | 16 | 284 | 0.0 | 0.0 | 0.00 | 0.00 | 0.00 | 99 | 1067.5 |
| 20260905032904 | 16 | 284 | 0.0 | 0.0 | 0.00 | 0.00 | 0.00 | 99 | 1067.3 |
| 20260905031900 | 16 | 284 | 0.0 | 0.0 | 0.00 | 0.00 | 0.00 | 99 | 1067.4 |
| 20260905030857 | 16 | 285 | 0.0 | 0.0 | 0.00 | 0.00 | 0.00 | 99 | 1067.7 |
| 20260905025858 | 16 | 284 | 0.0 | 0.0 | 0.00 | 0.00 | 0.00 | 99 | 1067.7 |
| 20260905024856 | 16 | 284 | 0.0 | 0.0 | 0.00 | 0.00 | 0.00 | 99 | 1067.8 |
| 20260905023851 | 16 | 284 | 0.0 | 0.0 | 0.00 | 0.00 | 0.00 | 99 | 1067.7 |
| 20260905022851 | 16 | 284 | 0.0 | 0.0 | 0.00 | 0.00 | 0.00 | 99 | 1068.0 |
| 20260905021847 | 16 | 285 | 0.0 | 0.0 | 0.00 | 0.00 | 0.00 | 99 | 1068.0 |
| 20260905020843 | 16 | 284 | 0.0 | 0.0 | 0.00 | 0.00 | 0.00 | 99 | 1067.8 |
| 20260905015843 | 16 | 284 | 0.0 | 0.0 | 0.00 | 0.00 | 0.00 | 99 | 1067.6 |
| 20260905014842 | 16 | 284 | 0.0 | 0.0 | 0.00 | 0.00 | 0.00 | 99 | 1067.9 |
| 20260905013838 | 16 | 287 | 0.0 | 0.0 | 0.00 | 0.00 | 0.00 | 99 | 1067.8 |
| 20260905012834 | 16 | 288 | 0.0 | 0.0 | 0.00 | 0.00 | 0.00 | 99 | 1067.9 |
| 20260905011833 | 16 | 295 | 0.0 | 0.0 | 0.00 | 0.00 | 0.00 | 99 | 1067.7 |
| 20260905010828 | 17 | 295 | 0.0 | 0.0 | 0.00 | 0.00 | 0.00 | 99 | 1067.9 |
| 20260905005825 | 17 | 289 | 0.0 | 1.6 | 0.00 | 0.00 | 0.00 | 99 | 1068.1 |
| 20260905004821 | 17 | 295 | 1.6 | 1.6 | 0.00 | 0.00 | 0.00 | 99 | 1068.1 |
| 20260905003817 | 17 | 295 | 0.0 | 1.6 | 0.00 | 0.00 | 0.00 | 99 | 1068.2 |
| 20260905002814 | 17 | 285 | 0.0 | 0.0 | 0.00 | 0.00 | 0.00 | 99 | 1067.7 |
| 20260905001809 | 17 | 285 | 1.6 | 1.6 | 0.00 | 0.00 | 0.00 | 99 | 1067.8 |
| 20260905000804 | 17 | 276 | 0.0 | 1.6 | 0.00 | 0.00 | 0.00 | 97 | 1067.7 |
| 20260904235800 | 17 | 280 | 0.0 | 0.0 | 0.00 | 0.00 | 0.00 | 94 | 1067.5 |
| 20260904234756 | 17 | 279 | 0.0 | 0.0 | 0.00 | 0.00 | 0.00 | 93 | 1067.3 |
| 20260904233753 | 18 | 283 | 0.0 | 0.0 | 0.00 | 0.00 | 0.00 | 93 | 1067.5 |
| 20260904232751 | 18 | 284 | 0.0 | 0.0 | 0.00 | 0.00 | 0.00 | 90 | 1067.4 |
| 20260904231748 | 18 | 286 | 0.0 | 0.0 | 0.00 | 0.00 | 0.00 | 88 | 1067.4 |
| 20260904230744 | 19 | 295 | 0.0 | 0.0 | 0.00 | 0.00 | 0.00 | 87 | 1067.3 |
| 20260904225743 | 19 | 295 | 0.0 | 0.0 | 0.00 | 0.00 | 0.00 | 87 | 1067.3 |
| 20260904224742 | 19 | 286 | 0.0 | 0.0 | 0.00 | 0.00 | 0.00 | 87 | 1067.0 |
| 20260904223737 | 19 | 292 | 0.0 | 0.0 | 0.00 | 0.00 | 0.00 | 87 | 1067.1 |
| 20260904222734 | 19 | 305 | 1.6 | 1.6 | 0.00 | 0.00 | 0.00 | 87 | 1067.1 |
| 20260904221735 | 19 | 301 | 1.6 | 1.6 | 0.00 | 0.00 | 0.00 | 86 | 1067.4 |
| 20260904220730 | 20 | 313 | 1.6 | 3.2 | 0.00 | 0.00 | 0.00 | 85 | 1067.1 |
| 20260904215731 | 20 | 326 | 3.2 | 3.2 | 0.00 | 0.00 | 0.00 | 84 | 1067.2 |
| 20260904214727 | 20 | 333 | 3.2 | 3.2 | 0.00 | 0.00 | 0.00 | 83 | 1067.2 |
| 20260904213727 | 20 | 300 | 3.2 | 3.2 | 0.00 | 0.00 | 0.00 | 81 | 1067.2 |
| 20260904212724 | 20 | 333 | 4.8 | 8.0 | 0.00 | 0.00 | 0.00 | 80 | 1067.3 |
| 20260904211725 | 20 | 299 | 1.6 | 1.6 | 0.00 | 0.00 | 0.00 | 81 | 1067.3 |
| 20260904210720 | 20 | 311 | 1.6 | 3.2 | 0.00 | 0.00 | 0.00 | 79 | 1067.2 |
| 20260904205717 | 20 | 355 | 4.8 | 4.8 | 0.00 | 0.00 | 0.00 | 77 | 1067.1 |
| 20260904204715 | 21 | 334 | 4.8 | 4.8 | 0.00 | 0.00 | 0.00 | 77 | 1067.3 |
| 20260904203713 | 21 | 285 | 3.2 | 4.8 | 0.00 | 0.00 | 0.00 | 77 | 1067.3 |
| 20260904202710 | 21 | 319 | 3.2 | 3.2 | 0.00 | 0.00 | 0.00 | 74 | 1067.3 |
| 20260904201707 | 21 | 326 | 3.2 | 3.2 | 0.00 | 0.00 | 0.00 | 75 | 1067.4 |
| 20260904200708 | 21 | 273 | 0.0 | 1.6 | 0.00 | 0.00 | 0.00 | 75 | 1067.5 |
| 20260904195707 | 21 | 331 | 3.2 | 3.2 | 0.00 | 0.00 | 0.00 | 73 | 1067.5 |
| 20260904194707 | 22 | 42 | 4.8 | 4.8 | 0.00 | 0.00 | 0.00 | 68 | 1067.5 |
| 20260904193703 | 22 | 318 | 3.2 | 3.2 | 0.00 | 0.00 | 0.00 | 70 | 1067.5 |
| 20260904192658 | 21 | 313 | 3.2 | 3.2 | 0.00 | 0.00 | 0.00 | 68 | 1067.5 |
| 20260904191656 | 21 | 323 | 4.8 | 4.8 | 0.00 | 0.00 | 0.00 | 69 | 1067.4 |
| 20260904190654 | 22 | 320 | 3.2 | 4.8 | 0.00 | 0.00 | 0.00 | 70 | 1067.2 |
| 20260904185653 | 21 | 299 | 1.6 | 3.2 | 0.00 | 0.00 | 0.00 | 73 | 1067.6 |
| 20260904184651 | 22 | 340 | 3.2 | 3.2 | 0.00 | 0.00 | 0.00 | 71 | 1067.5 |
| 20260904183649 | 22 | 316 | 4.8 | 8.0 | 0.00 | 0.00 | 0.00 | 66 | 1067.7 |
| 20260904182644 | 22 | 326 | 4.8 | 4.8 | 0.00 | 0.00 | 0.00 | 70 | 1067.9 |
| 20260904181641 | 23 | 324 | 1.6 | 3.2 | 0.00 | 0.00 | 0.00 | 69 | 1067.9 |
| 20260904180636 | 23 | 337 | 6.4 | 8.0 | 0.00 | 0.00 | 0.00 | 68 | 1067.8 |
| 20260904175636 | 22 | 304 | 1.6 | 3.2 | 0.00 | 0.00 | 0.00 | 70 | 1068.1 |
| 20260904174635 | 22 | 327 | 8.0 | 9.7 | 0.00 | 0.00 | 0.00 | 67 | 1067.9 |
| 20260904173632 | 22 | 326 | 3.2 | 3.2 | 0.00 | 0.00 | 0.00 | 70 | 1067.9 |
| 20260904172630 | 21 | 315 | 1.6 | 3.2 | 0.00 | 0.00 | 0.00 | 69 | 1068.1 |
| 20260904171630 | 21 | 307 | 0.0 | 1.6 | 0.00 | 0.00 | 0.00 | 74 | 1068.3 |
| 20260904170627 | 21 | 325 | 3.2 | 3.2 | 0.00 | 0.00 | 0.00 | 72 | 1068.2 |
| 20260904165627 | 21 | 342 | 3.2 | 4.8 | 0.00 | 0.00 | 0.00 | 75 | 1068.3 |
| 20260904164627 | 21 | 47 | 3.2 | 3.2 | 0.00 | 0.00 | 0.00 | 75 | 1068.1 |
| 20260904163624 | 21 | 324 | 3.2 | 4.8 | 0.00 | 0.00 | 0.00 | 74 | 1068.4 |
| 20260904162619 | 21 | 331 | 4.8 | 4.8 | 0.00 | 0.00 | 0.00 | 72 | 1068.3 |
| 20260904161615 | 21 | 305 | 1.6 | 1.6 | 0.00 | 0.00 | 0.00 | 78 | 1068.7 |
| 20260904160612 | 21 | 318 | 3.2 | 3.2 | 0.00 | 0.00 | 0.00 | 74 | 1068.3 |
| 20260904155607 | 21 | 72 | 4.8 | 4.8 | 0.00 | 0.00 | 0.00 | 77 | 1068.3 |
| 20260904154607 | 21 | 41 | 3.2 | 4.8 | 0.00 | 0.00 | 0.00 | 75 | 1068.4 |
| 20260904153608 | 21 | 294 | 1.6 | 1.6 | 0.00 | 0.00 | 0.00 | 77 | 1068.5 |
| 20260904152605 | 21 | 324 | 6.4 | 9.7 | 0.00 | 0.00 | 0.00 | 76 | 1068.5 |
| 20260904151601 | 20 | 131 | 3.2 | 4.8 | 0.00 | 0.00 | 0.00 | 80 | 1068.7 |
| 20260904150601 | 20 | 324 | 4.8 | 4.8 | 0.00 | 0.00 | 0.00 | 82 | 1068.9 |
| 20260904145600 | 20 | 336 | 3.2 | 8.0 | 0.00 | 0.00 | 0.00 | 84 | 1068.8 |
| 20260904144557 | 20 | 316 | 1.6 | 3.2 | 0.00 | 0.00 | 0.00 | 85 | 1068.8 |
| 20260904143555 | 20 | 326 | 3.2 | 3.2 | 0.00 | 0.00 | 0.00 | 86 | 1069.1 |
| 20260904142553 | 20 | 336 | 1.6 | 1.6 | 0.00 | 0.00 | 0.00 | 85 | 1069.0 |
| 20260904141549 | 20 | 338 | 0.0 | 0.0 | 0.00 | 0.00 | 0.00 | 88 | 1069.0 |
| 20260904140545 | 18 | 310 | 3.2 | 3.2 | 0.00 | 0.00 | 0.00 | 89 | 1068.8 |
| 20260904135544 | 18 | 292 | 0.0 | 0.0 | 0.00 | 0.00 | 0.00 | 93 | 1069.0 |
| 20260904134542 | 17 | 304 | 3.2 | 3.2 | 0.00 | 0.00 | 0.00 | 99 | 1068.5 |
| 20260904133537 | 17 | 323 | 1.6 | 1.6 | 0.00 | 0.00 | 0.00 | 99 | 1068.9 |
| 20260904132533 | 17 | 291 | 0.0 | 0.0 | 0.00 | 0.00 | 0.00 | 99 | 1068.7 |
| 20260904131533 | 17 | 293 | 0.0 | 1.6 | 0.00 | 0.00 | 0.00 | 99 | 1068.8 |
| 20260904130528 | 16 | 158 | 1.6 | 1.6 | 0.00 | 0.00 | 0.00 | 99 | 1068.8 |
| 20260904125525 | 16 | 86 | 1.6 | 1.6 | 0.00 | 0.00 | 0.00 | 99 | 1068.9 |
| 20260904124521 | 16 | 250 | 0.0 | 0.0 | 0.00 | 0.00 | 0.00 | 99 | 1069.0 |
| 20260904123516 | 16 | 277 | 0.0 | 0.0 | 0.00 | 0.00 | 0.00 | 99 | 1069.1 |
| 20260904122513 | 15 | 277 | 0.0 | 0.0 | 0.00 | 0.00 | 0.00 | 99 | 1068.8 |
| 20260904121509 | 15 | 291 | 0.0 | 0.0 | 0.00 | 0.00 | 0.00 | 99 | 1068.8 |